Tunica, MS

5:14 PM CST on February 10, 2016 (GMT -0600)
Tunica

Weather History for KUTA - April, 2013

Change the Weather History Date:

Monday, April 15, 2013

  Actual Average (KMEM) Record (KMEM)
Temperature  
Mean Temperature 66 °F 63 °F  
Max Temperature 78 °F 73 °F 88 °F (1925)
Min Temperature 55 °F 53 °F 31 °F (1943)
Degree Days  
Heating Degree Days 0 5  
Month to date heating degree days 92  
Since 1 July heating degree days 2900  
Cooling Degree Days 2 2  
Month to date cooling degree days 28  
Year to date cooling degree days 48  
Growing Degree Days 16 (Base 50)    
Moisture  
Dew Point 59 °F    
Average Humidity 80    
Maximum Humidity 100    
Minimum Humidity 57    
Precipitation  
Precipitation 0.00 in 0.18 in 4.09 in (1927)
Month to date precipitation 2.68  
Year to date precipitation 16.21  
Snow  
Snow 0.00 in 0.00 in - ()
Month to date snowfall 0.0  
Since 1 July snowfall 3.8  
Snow Depth -    
Sea Level Pressure  
Sea Level Pressure 29.89 in    
Wind  
Wind Speed 9 mph (SSE)    
Max Wind Speed 14 mph    
Max Gust Speed 18 mph    
Visibility 10 miles    
Events      
T = Trace of Precipitation, MM = Missing Value Source: NWS Daily Summary

Daily Weather History Graph

Daily Weather History Graph

Search for Another Location

Airport or City:

Trip Planner

Search our weather history database for the weather conditions in past years. The results will help you decide how hot, cold, wet, or windy it might be!

Date:

Astronomy

Apr. 15, 2013 Rise Set
Actual Time 6:29 AM CDT 7:33 PM CDT
Civil Twilight 6:03 AM CDT 7:59 PM CDT
Nautical Twilight 5:32 AM CDT 8:30 PM CDT
Astronomical Twilight 5:00 AM CDT 9:02 PM CDT
Moon 10:02 AM CDT (4/15) No Moon Set
Length of Visible Light 13h 56m
Length of Day
13h 04m
Waxing Crescent, 25% of the Moon is Illuminated
Apr 15
Waxing Crescent
Apr 18
First Quarter
Apr 25
Full
May 2
Last Quarter
May 9
New

Hourly Weather History & Observations

Time (CDT) Temp. Dew Point Humidity Pressure Visibility Wind Dir Wind Speed Gust Speed Precip Events Conditions
12:15 AM 59.0 °F 53.6 °F 82% 29.83 in 10.0 mi SSE 10.4 mph - N/A   Overcast
12:35 AM 59.0 °F 53.6 °F 82% 29.84 in 10.0 mi SE 9.2 mph - N/A   Overcast
12:55 AM 59.0 °F 55.4 °F 88% 29.85 in 10.0 mi SE 8.1 mph - N/A   Overcast
1:15 AM 59.0 °F 53.6 °F 82% 29.85 in 10.0 mi SE 8.1 mph - N/A   Overcast
1:35 AM 59.0 °F 53.6 °F 82% 29.84 in 10.0 mi SE 9.2 mph - N/A   Mostly Cloudy
1:55 AM 59.0 °F 53.6 °F 82% 29.84 in 10.0 mi SE 10.4 mph 17.3 mph N/A   Mostly Cloudy
2:15 AM 59.0 °F 53.6 °F 82% 29.83 in 10.0 mi SE 9.2 mph - N/A   Scattered Clouds
2:35 AM 59.0 °F 53.6 °F 82% 29.84 in 10.0 mi SE 6.9 mph - N/A   Scattered Clouds
2:55 AM 57.2 °F 53.6 °F 88% 29.84 in 10.0 mi SE 8.1 mph - N/A   Mostly Cloudy
3:15 AM 57.2 °F 53.6 °F 88% 29.84 in 10.0 mi SE 6.9 mph - N/A   Scattered Clouds
3:35 AM 55.4 °F 53.6 °F 94% 29.84 in 10.0 mi SE 5.8 mph - N/A   Clear
3:55 AM 55.4 °F 53.6 °F 94% 29.85 in 10.0 mi ESE 5.8 mph - N/A   Clear
4:15 AM 55.4 °F 53.6 °F 94% 29.85 in 10.0 mi ESE 5.8 mph - N/A   Clear
4:35 AM 55.4 °F 53.6 °F 94% 29.86 in 10.0 mi ESE 4.6 mph - N/A   Clear
4:55 AM 55.4 °F 53.6 °F 94% 29.86 in 10.0 mi East 4.6 mph - N/A   Scattered Clouds
5:15 AM 55.4 °F 53.6 °F 94% 29.86 in 10.0 mi SE 4.6 mph - N/A   Mostly Cloudy
5:35 AM 55.4 °F 53.6 °F 94% 29.87 in 10.0 mi SE 3.5 mph - N/A   Mostly Cloudy
5:55 AM 55.4 °F 53.6 °F 94% 29.88 in 10.0 mi Calm Calm - N/A   Scattered Clouds
6:15 AM 55.4 °F 53.6 °F 94% 29.88 in 10.0 mi SE 4.6 mph - N/A   Clear
6:35 AM 55.4 °F 55.4 °F 100% 29.89 in 10.0 mi SE 5.8 mph - N/A   Scattered Clouds
6:55 AM 55.4 °F 55.4 °F 100% 29.90 in 10.0 mi SE 6.9 mph - N/A   Mostly Cloudy
7:15 AM 57.2 °F 55.4 °F 94% 29.90 in 10.0 mi SE 10.4 mph - N/A   Overcast
7:35 AM 59.0 °F 55.4 °F 88% 29.90 in 10.0 mi SE 12.7 mph - N/A   Overcast
7:55 AM 59.0 °F 55.4 °F 88% 29.91 in 10.0 mi SSE 12.7 mph 18.4 mph N/A   Mostly Cloudy
8:15 AM 59.0 °F 55.4 °F 88% 29.92 in 10.0 mi SSE 12.7 mph - N/A   Overcast
8:35 AM 59.0 °F 57.2 °F 94% 29.93 in 7.0 mi SSE 9.2 mph - N/A   Overcast
8:55 AM 59.0 °F 57.2 °F 94% 29.92 in 10.0 mi SE 9.2 mph - N/A   Overcast
9:15 AM 60.8 °F 59.0 °F 94% 29.93 in 7.0 mi SSE 9.2 mph - N/A   Overcast
9:35 AM 60.8 °F 59.0 °F 94% 29.93 in 7.0 mi SSE 8.1 mph - N/A   Overcast
9:55 AM 60.8 °F 59.0 °F 94% 29.93 in 10.0 mi SSE 10.4 mph - N/A   Overcast
10:15 AM 62.6 °F 59.0 °F 88% 29.93 in 10.0 mi SE 9.2 mph - N/A   Overcast
10:35 AM 62.6 °F 59.0 °F 88% 29.94 in 10.0 mi SE 11.5 mph - N/A   Overcast
10:55 AM 64.4 °F 60.8 °F 88% 29.94 in 10.0 mi SE 11.5 mph - N/A   Overcast
11:15 AM 64.4 °F 60.8 °F 88% 29.95 in 10.0 mi SE 11.5 mph - N/A   Overcast
11:35 AM 64.4 °F 60.8 °F 88% 29.94 in 10.0 mi SSE 11.5 mph - N/A   Overcast
11:55 AM 64.4 °F 60.8 °F 88% 29.94 in 10.0 mi SE 11.5 mph - N/A   Overcast
12:15 PM 66.2 °F 60.8 °F 83% 29.94 in 10.0 mi SE 12.7 mph - N/A   Overcast
12:35 PM 68.0 °F 60.8 °F 78% 29.93 in 10.0 mi SE 13.8 mph - N/A   Overcast
12:55 PM 69.8 °F 62.6 °F 78% 29.93 in 10.0 mi SSE 13.8 mph - N/A   Overcast
1:15 PM 69.8 °F 62.6 °F 78% 29.92 in 10.0 mi SSE 12.7 mph - N/A   Scattered Clouds
1:35 PM 71.6 °F 62.6 °F 73% 29.91 in 10.0 mi SE 11.5 mph 17.3 mph N/A   Scattered Clouds
1:55 PM 71.6 °F 62.6 °F 73% 29.90 in 10.0 mi SSE 11.5 mph 17.3 mph N/A   Scattered Clouds
2:15 PM 73.4 °F 62.6 °F 69% 29.90 in 10.0 mi SE 10.4 mph - N/A   Scattered Clouds
2:35 PM 75.2 °F 64.4 °F 69% 29.90 in 10.0 mi South 9.2 mph - N/A   Scattered Clouds
2:55 PM 77.0 °F 62.6 °F 61% 29.89 in 10.0 mi South 12.7 mph 17.3 mph N/A   Clear
3:15 PM 77.0 °F 64.4 °F 65% 29.88 in 10.0 mi South 8.1 mph - N/A   Clear
3:35 PM 77.0 °F 62.6 °F 61% 29.87 in 10.0 mi South 9.2 mph 16.1 mph N/A   Clear
3:55 PM 78.8 °F 62.6 °F 57% 29.87 in 10.0 mi South 12.7 mph - N/A   Clear
4:15 PM 78.8 °F 62.6 °F 57% 29.86 in 10.0 mi South 10.4 mph - N/A   Clear
4:35 PM 78.8 °F 62.6 °F 57% 29.86 in 10.0 mi South 11.5 mph 17.3 mph N/A   Clear
4:55 PM 78.8 °F 62.6 °F 57% 29.86 in 10.0 mi South 12.7 mph 18.4 mph N/A   Clear
5:15 PM 78.8 °F 62.6 °F 57% 29.85 in 10.0 mi South 10.4 mph - N/A   Clear
5:35 PM 78.8 °F 62.6 °F 57% 29.85 in 10.0 mi South 11.5 mph - N/A   Clear
5:55 PM 78.8 °F 62.6 °F 57% 29.85 in 10.0 mi SSE 10.4 mph - N/A   Clear
6:15 PM 78.8 °F 62.6 °F 57% 29.85 in 10.0 mi SSE 12.7 mph - N/A   Clear
6:35 PM 78.8 °F 62.6 °F 57% 29.85 in 10.0 mi South 10.4 mph - N/A   Clear
6:55 PM 77.0 °F 62.6 °F 61% 29.85 in 10.0 mi South 9.2 mph - N/A   Clear
7:15 PM 77.0 °F 62.6 °F 61% 29.85 in 10.0 mi SE 12.7 mph - N/A   Clear
7:35 PM 73.4 °F 62.6 °F 69% 29.85 in 10.0 mi SSE 10.4 mph - N/A   Clear
7:55 PM 73.4 °F 62.6 °F 69% 29.86 in 10.0 mi SE 9.2 mph - N/A   Clear
8:15 PM 71.6 °F 62.6 °F 73% 29.87 in 10.0 mi SSE 8.1 mph - N/A   Clear
8:35 PM 71.6 °F 62.6 °F 73% 29.88 in 10.0 mi SSE 8.1 mph - N/A   Clear
8:55 PM 69.8 °F 62.6 °F 78% 29.89 in 10.0 mi SSE 6.9 mph - N/A   Clear
9:35 PM 69.8 °F 62.6 °F 78% 29.91 in 10.0 mi SSE 10.4 mph - N/A   Clear
9:55 PM 69.8 °F 62.6 °F 78% 29.91 in 10.0 mi SSE 9.2 mph - N/A   Clear
10:15 PM 69.8 °F 62.6 °F 78% 29.92 in 10.0 mi SE 10.4 mph - N/A   Clear
10:35 PM 69.8 °F 62.6 °F 78% 29.92 in 10.0 mi SE 11.5 mph - N/A   Clear
10:55 PM 69.8 °F 62.6 °F 78% 29.92 in 10.0 mi SE 6.9 mph - N/A   Clear
11:15 PM 69.8 °F 62.6 °F 78% 29.92 in 10.0 mi SSE 9.2 mph - N/A   Clear
11:35 PM 68.0 °F 62.6 °F 83% 29.93 in 10.0 mi SSE 8.1 mph - N/A   Clear
11:55 PM 69.8 °F 62.6 °F 78% 29.92 in 10.0 mi SSE 10.4 mph - N/A   Clear